DAL8976 SAEZ-SBGL

Flight info

Callsign DAL8976
Flight time 2h 31m
Altitude 41000
Route KUKEN1J KUKEN UM654 GAMOT DCT USTUN DCT DOKRO UN857 AKNUB
Aircraft A359/H-SDE2E3GHIJ3J4J5LM1ORWXY/LB1D1

Departure

Time 2026-05-01 10:35
Airport Ezeiza International Airport - Ministro Pistarini (SAEZ)

Arrival

Time 2026-05-01 13:07
Airport Rio Galeão – Tom Jobim International Airport (SBGL)
Time Latitude Longitude Altitude Speed Heading
2026-05-01 10:21 -34.81607 -58.53987 75 ft 0 kts 317°
2026-05-01 10:27 -34.81608 -58.53986 75 ft 1 kts 317°
2026-05-01 10:28 -34.81620 -58.53972 65 ft 3 kts 317°
2026-05-01 10:28 -34.81650 -58.53939 65 ft 3 kts 317°
2026-05-01 10:28 -34.81665 -58.53922 65 ft 3 kts 319°
2026-05-01 10:29 -34.81694 -58.53889 65 ft 3 kts 302°
2026-05-01 10:29 -34.81702 -58.53872 65 ft 3 kts 288°
2026-05-01 10:30 -34.81692 -58.53833 67 ft 3 kts 222°
2026-05-01 10:30 -34.81681 -58.53819 64 ft 0 kts 234°
2026-05-01 10:32 -34.81703 -58.53858 65 ft 14 kts 236°
2026-05-01 10:32 -34.81791 -58.54109 68 ft 18 kts 268°
2026-05-01 10:33 -34.81754 -58.54451 70 ft 22 kts 275°
2026-05-01 10:33 -34.81763 -58.54856 66 ft 26 kts 281°
2026-05-01 10:34 -34.81722 -58.55077 69 ft 27 kts 283°
2026-05-01 10:34 -34.81695 -58.55232 70 ft 15 kts 276°
2026-05-01 10:34 -34.81745 -58.55339 71 ft 16 kts 201°
2026-05-01 10:35 -34.81936 -58.55167 67 ft 26 kts 103°
2026-05-01 10:35 -34.82043 -58.54568 72 ft 122 kts 103°
2026-05-01 10:35 -34.82282 -58.53215 325 ft 189 kts 100°
2026-05-01 10:35 -34.82541 -58.51559 1285 ft 209 kts 96°
2026-05-01 10:36 -34.84243 -58.48295 2242 ft 251 kts 129°
2026-05-01 10:36 -34.85399 -58.46663 2829 ft 254 kts 126°
2026-05-01 10:36 -34.86408 -58.44901 3496 ft 255 kts 120°
2026-05-01 10:37 -34.87331 -58.43072 4119 ft 257 kts 118°
2026-05-01 10:37 -34.89168 -58.39272 5377 ft 262 kts 118°
2026-05-01 10:37 -34.90090 -58.37337 6010 ft 264 kts 118°
2026-05-01 10:38 -34.90819 -58.35282 6612 ft 265 kts 102°
2026-05-01 10:38 -34.91211 -58.33089 7203 ft 266 kts 96°
2026-05-01 10:38 -34.91537 -58.30853 7789 ft 269 kts 96°
2026-05-01 10:38 -34.91863 -58.28595 8394 ft 271 kts 95°
2026-05-01 10:39 -34.92192 -58.26342 8983 ft 275 kts 95°
2026-05-01 10:39 -34.92532 -58.24035 9591 ft 278 kts 95°
2026-05-01 10:39 -34.92877 -58.21706 10152 ft 281 kts 95°
2026-05-01 10:39 -34.93227 -58.19344 10706 ft 284 kts 95°
2026-05-01 10:40 -34.93580 -58.16965 11227 ft 287 kts 95°
2026-05-01 10:40 -34.93937 -58.14557 11769 ft 290 kts 96°
2026-05-01 10:40 -34.94297 -58.12133 12333 ft 292 kts 96°
2026-05-01 10:40 -34.94660 -58.09683 12873 ft 295 kts 96°
2026-05-01 10:41 -34.95027 -58.07203 13409 ft 298 kts 96°
2026-05-01 10:41 -34.95396 -58.04703 13904 ft 301 kts 97°
2026-05-01 10:41 -34.96117 -57.99602 14659 ft 313 kts 93°
2026-05-01 10:42 -34.96276 -57.96898 14859 ft 327 kts 91°
2026-05-01 10:42 -34.96477 -57.94070 15048 ft 341 kts 91°
2026-05-01 10:42 -34.96678 -57.91133 15214 ft 354 kts 89°
2026-05-01 10:42 -34.96468 -57.88121 15386 ft 360 kts 71°
2026-05-01 10:43 -34.95463 -57.85399 15544 ft 358 kts 47°
2026-05-01 10:43 -34.93641 -57.83396 15715 ft 353 kts 23°
2026-05-01 10:43 -34.91334 -57.82490 15879 ft 349 kts
2026-05-01 10:43 -34.88939 -57.82810 16029 ft 348 kts 338°
2026-05-01 10:44 -34.86845 -57.84277 16215 ft 351 kts 316°
2026-05-01 10:44 -34.85186 -57.86466 16545 ft 354 kts 310°
2026-05-01 10:44 -34.83553 -57.88730 16918 ft 356 kts 311°
2026-05-01 10:44 -34.81869 -57.90955 17322 ft 358 kts 313°
2026-05-01 10:45 -34.80088 -57.93091 17715 ft 361 kts 318°
2026-05-01 10:45 -34.78028 -57.94864 18069 ft 365 kts 329°
2026-05-01 10:45 -34.75706 -57.96161 18426 ft 369 kts 335°
2026-05-01 10:45 -34.73309 -57.97293 18754 ft 371 kts 336°
2026-05-01 10:46 -34.70879 -57.98399 19086 ft 373 kts 336°
2026-05-01 10:46 -34.68434 -57.99500 19400 ft 375 kts 336°
2026-05-01 10:46 -34.66008 -58.00586 19728 ft 377 kts 336°
2026-05-01 10:46 -34.63546 -58.01685 20060 ft 379 kts 336°
2026-05-01 10:47 -34.61057 -58.02794 20384 ft 381 kts 336°
2026-05-01 10:47 -34.58563 -58.03905 20676 ft 383 kts 336°
2026-05-01 10:47 -34.56049 -58.05023 20985 ft 385 kts 336°
2026-05-01 10:47 -34.53530 -58.06141 21311 ft 387 kts 336°
2026-05-01 10:48 -34.50989 -58.07269 21631 ft 388 kts 336°
2026-05-01 10:48 -34.48445 -58.08398 21944 ft 390 kts 336°
2026-05-01 10:48 -34.45885 -58.09533 22270 ft 392 kts 336°
2026-05-01 10:48 -34.43347 -58.10657 22561 ft 394 kts 336°
2026-05-01 10:49 -34.40766 -58.11800 22859 ft 395 kts 336°
2026-05-01 10:49 -34.38176 -58.12946 23159 ft 397 kts 336°
2026-05-01 10:49 -34.35575 -58.14096 23465 ft 399 kts 336°
2026-05-01 10:49 -34.32961 -58.15251 23728 ft 400 kts 336°
2026-05-01 10:50 -34.30340 -58.16408 23995 ft 401 kts 336°
2026-05-01 10:50 -34.27715 -58.17567 24263 ft 402 kts 336°
2026-05-01 10:50 -34.25036 -58.18626 24524 ft 406 kts 341°
2026-05-01 10:50 -34.22232 -58.19231 24790 ft 412 kts 350°
2026-05-01 10:51 -34.19339 -58.19237 25045 ft 420 kts 360°
2026-05-01 10:51 -34.16464 -58.18603 25302 ft 429 kts 10°
2026-05-01 10:51 -34.13643 -58.17309 25555 ft 439 kts 19°
2026-05-01 10:51 -34.10949 -58.15511 25816 ft 446 kts 26°
2026-05-01 10:52 -34.08363 -58.13407 26086 ft 451 kts 29°
2026-05-01 10:52 -34.05833 -58.11150 26356 ft 454 kts 31°
2026-05-01 10:52 -34.03322 -58.08841 26625 ft 456 kts 31°
2026-05-01 10:52 -34.00783 -58.06510 26888 ft 457 kts 30°
2026-05-01 10:53 -33.98243 -58.04211 27190 ft 459 kts 30°
2026-05-01 10:53 -33.95668 -58.01914 27482 ft 460 kts 30°
2026-05-01 10:53 -33.93077 -57.99630 27760 ft 462 kts 29°
2026-05-01 10:53 -33.90473 -57.97351 28069 ft 463 kts 29°
2026-05-01 10:54 -33.87856 -57.95069 28382 ft 465 kts 29°
2026-05-01 10:54 -33.85259 -57.92808 28685 ft 467 kts 29°
2026-05-01 10:54 -33.82624 -57.90518 29005 ft 469 kts 29°
2026-05-01 10:54 -33.79967 -57.88208 29325 ft 471 kts 28°
2026-05-01 10:55 -33.77304 -57.85893 29637 ft 474 kts 28°
2026-05-01 10:55 -33.74625 -57.83565 29978 ft 476 kts 28°
2026-05-01 10:55 -33.71935 -57.81229 30249 ft 478 kts 28°
2026-05-01 10:55 -33.69236 -57.78885 30507 ft 481 kts 28°
2026-05-01 10:56 -33.66512 -57.76522 30774 ft 483 kts 28°
2026-05-01 10:56 -33.63778 -57.74152 31051 ft 485 kts 28°
2026-05-01 10:56 -33.61033 -57.71780 31304 ft 488 kts 28°
2026-05-01 10:56 -33.58269 -57.69390 31569 ft 490 kts 28°
2026-05-01 10:57 -33.55500 -57.66995 31813 ft 492 kts 28°
2026-05-01 10:57 -33.52752 -57.64618 32040 ft 494 kts 28°
2026-05-01 10:57 -33.49975 -57.62217 32348 ft 495 kts 28°
2026-05-01 10:57 -33.47164 -57.59790 32573 ft 497 kts 28°
2026-05-01 10:58 -33.44349 -57.57363 32791 ft 499 kts 28°
2026-05-01 10:58 -33.41523 -57.54928 33099 ft 500 kts 28°
2026-05-01 10:58 -33.38708 -57.52502 33449 ft 499 kts 28°
2026-05-01 10:58 -33.35885 -57.50072 33781 ft 499 kts 28°
2026-05-01 10:59 -33.33062 -57.47646 34062 ft 499 kts 28°
2026-05-01 10:59 -33.30245 -57.45225 34356 ft 498 kts 28°
2026-05-01 10:59 -33.27430 -57.42811 34620 ft 498 kts 27°
2026-05-01 10:59 -33.24614 -57.40399 34878 ft 499 kts 27°
2026-05-01 11:00 -33.21786 -57.37978 35131 ft 499 kts 27°
2026-05-01 11:00 -33.18962 -57.35563 35425 ft 498 kts 27°
2026-05-01 11:00 -33.16135 -57.33146 35683 ft 499 kts 26°
2026-05-01 11:00 -33.13353 -57.30770 35934 ft 499 kts 26°
2026-05-01 11:01 -33.10514 -57.28346 36204 ft 499 kts 26°
2026-05-01 11:01 -33.07688 -57.25935 36474 ft 500 kts 26°
2026-05-01 11:01 -33.04857 -57.23523 36735 ft 500 kts 26°
2026-05-01 11:01 -33.02023 -57.21109 36963 ft 500 kts 26°
2026-05-01 11:02 -32.99189 -57.18696 37236 ft 500 kts 25°
2026-05-01 11:02 -32.96352 -57.16283 37498 ft 501 kts 25°
2026-05-01 11:02 -32.93519 -57.13877 37759 ft 501 kts 25°
2026-05-01 11:02 -32.90681 -57.11468 38018 ft 501 kts 25°
2026-05-01 11:03 -32.87845 -57.09064 38260 ft 501 kts 25°
2026-05-01 11:03 -32.85004 -57.06655 38524 ft 501 kts 25°
2026-05-01 11:03 -32.82164 -57.04251 38747 ft 501 kts 25°
2026-05-01 11:03 -32.79328 -57.01851 38963 ft 501 kts 25°
2026-05-01 11:04 -32.76490 -56.99450 39171 ft 501 kts 25°
2026-05-01 11:04 -32.73654 -56.97054 39373 ft 500 kts 25°
2026-05-01 11:04 -32.71776 -56.95467 39476 ft 500 kts 24°
2026-05-01 11:04 -32.68020 -56.92297 39742 ft 499 kts 24°
2026-05-01 11:05 -32.65180 -56.89903 39920 ft 499 kts 25°
2026-05-01 11:05 -32.62353 -56.87523 40103 ft 499 kts 25°
2026-05-01 11:05 -32.59519 -56.85141 40276 ft 499 kts 25°
2026-05-01 11:05 -32.56694 -56.82765 40442 ft 499 kts 25°
2026-05-01 11:06 -32.54775 -56.81154 40575 ft 498 kts 25°
2026-05-01 11:06 -32.51035 -56.78019 40809 ft 497 kts 25°
2026-05-01 11:06 -32.49157 -56.76445 40910 ft 498 kts 25°
2026-05-01 11:07 -32.40667 -56.69333 40958 ft 497 kts 25°
2026-05-01 11:07 -32.35010 -56.64603 40964 ft 497 kts 24°
2026-05-01 11:08 -32.29360 -56.59889 40968 ft 497 kts 24°
2026-05-01 11:09 -32.20920 -56.52862 40967 ft 497 kts 24°
2026-05-01 11:09 -32.15266 -56.48163 40977 ft 497 kts 24°
2026-05-01 11:10 -32.06765 -56.41116 40979 ft 498 kts 24°
2026-05-01 11:10 -32.01094 -56.36416 40980 ft 498 kts 24°
2026-05-01 11:11 -31.95427 -56.31726 40980 ft 498 kts 24°
2026-05-01 11:11 -31.89749 -56.27038 40990 ft 499 kts 24°
2026-05-01 11:12 -31.84061 -56.22349 40989 ft 499 kts 24°
2026-05-01 11:12 -31.78379 -56.17672 40990 ft 498 kts 24°
2026-05-01 11:13 -31.72693 -56.12997 40990 ft 498 kts 24°
2026-05-01 11:13 -31.67052 -56.08370 40992 ft 498 kts 24°
2026-05-01 11:14 -31.61366 -56.03711 40996 ft 498 kts 24°
2026-05-01 11:14 -31.55675 -55.99057 41005 ft 498 kts 24°
2026-05-01 11:15 -31.49982 -55.94408 41008 ft 498 kts 24°
2026-05-01 11:15 -31.44303 -55.89771 41005 ft 498 kts 24°
2026-05-01 11:16 -31.38614 -55.85133 41004 ft 498 kts 24°
2026-05-01 11:16 -31.32926 -55.80506 41003 ft 498 kts 24°
2026-05-01 11:17 -31.27270 -55.75913 41004 ft 499 kts 24°
2026-05-01 11:17 -31.21564 -55.71286 40993 ft 499 kts 24°
2026-05-01 11:18 -31.15859 -55.66665 40996 ft 498 kts 24°
2026-05-01 11:18 -31.10160 -55.62055 40994 ft 498 kts 24°
2026-05-01 11:19 -31.04476 -55.57465 41004 ft 498 kts 24°
2026-05-01 11:19 -30.98771 -55.52852 40985 ft 500 kts 25°
2026-05-01 11:20 -30.96059 -55.50237 40984 ft 513 kts 34°
2026-05-01 11:20 -30.93648 -55.47098 41021 ft 528 kts 44°
2026-05-01 11:20 -30.89742 -55.39688 41006 ft 541 kts 52°
2026-05-01 11:21 -30.86184 -55.32018 41024 ft 543 kts 53°
2026-05-01 11:21 -30.82619 -55.24275 41016 ft 543 kts 53°
2026-05-01 11:22 -30.79004 -55.16545 41021 ft 544 kts 53°
2026-05-01 11:22 -30.75362 -55.08834 41022 ft 544 kts 53°
2026-05-01 11:23 -30.71711 -55.01128 41023 ft 544 kts 53°
2026-05-01 11:23 -30.68055 -54.93431 41024 ft 544 kts 53°
2026-05-01 11:24 -30.64393 -54.85731 41023 ft 544 kts 53°
2026-05-01 11:25 -30.58899 -54.74207 41020 ft 544 kts 53°
2026-05-01 11:25 -30.53410 -54.62729 41028 ft 545 kts 53°
2026-05-01 11:26 -30.47882 -54.51201 41028 ft 545 kts 53°
2026-05-01 11:27 -30.44191 -54.43526 41035 ft 546 kts 53°
2026-05-01 11:27 -30.40483 -54.35831 41034 ft 546 kts 53°
2026-05-01 11:28 -30.36773 -54.28145 41036 ft 546 kts 53°
2026-05-01 11:28 -30.33056 -54.20458 41040 ft 547 kts 53°
2026-05-01 11:29 -30.27492 -54.08982 41042 ft 547 kts 53°
2026-05-01 11:30 -30.21896 -53.97470 41039 ft 547 kts 53°
2026-05-01 11:30 -30.18157 -53.89805 41047 ft 547 kts 53°
2026-05-01 11:31 -30.14417 -53.82146 41049 ft 546 kts 53°
2026-05-01 11:31 -30.10675 -53.74497 41054 ft 546 kts 53°
2026-05-01 11:32 -30.06930 -53.66859 41054 ft 546 kts 53°
2026-05-01 11:32 -30.03209 -53.59283 41051 ft 546 kts 53°
2026-05-01 11:33 -29.99454 -53.51655 41048 ft 545 kts 53°
2026-05-01 11:33 -29.95701 -53.44043 41048 ft 545 kts 53°
2026-05-01 11:34 -29.91968 -53.36487 41051 ft 545 kts 53°
2026-05-01 11:34 -29.88168 -53.28811 41050 ft 545 kts 53°
2026-05-01 11:35 -29.84441 -53.21299 41051 ft 546 kts 53°
2026-05-01 11:35 -29.80671 -53.13714 41053 ft 546 kts 53°
2026-05-01 11:36 -29.76874 -53.06087 41055 ft 547 kts 53°
2026-05-01 11:36 -29.73116 -52.98552 41051 ft 547 kts 53°
2026-05-01 11:37 -29.69320 -52.90959 41061 ft 547 kts 53°
2026-05-01 11:37 -29.65525 -52.83379 41065 ft 547 kts 53°
2026-05-01 11:38 -29.61722 -52.75797 41052 ft 547 kts 53°
2026-05-01 11:38 -29.57911 -52.68215 41061 ft 547 kts 53°
2026-05-01 11:39 -29.54088 -52.60631 41051 ft 548 kts 53°
2026-05-01 11:39 -29.50266 -52.53053 41076 ft 549 kts 53°
2026-05-01 11:40 -29.46440 -52.45480 41077 ft 548 kts 53°
2026-05-01 11:40 -29.42617 -52.37923 41083 ft 549 kts 53°
2026-05-01 11:41 -29.38766 -52.30325 41090 ft 549 kts 52°
2026-05-01 11:41 -29.34917 -52.22762 41080 ft 549 kts 52°
2026-05-01 11:42 -29.31094 -52.15256 41105 ft 548 kts 53°
2026-05-01 11:42 -29.27253 -52.07727 41090 ft 548 kts 53°
2026-05-01 11:43 -29.23400 -52.00192 41099 ft 548 kts 53°
2026-05-01 11:43 -29.19535 -51.92646 41103 ft 549 kts 52°
2026-05-01 11:44 -29.13741 -51.81356 41100 ft 548 kts 53°
2026-05-01 11:44 -29.09872 -51.73837 41123 ft 549 kts 52°
2026-05-01 11:45 -29.05994 -51.66314 41132 ft 549 kts 52°
2026-05-01 11:45 -29.02133 -51.58841 41135 ft 549 kts 52°
2026-05-01 11:46 -28.98248 -51.51331 41136 ft 549 kts 53°
2026-05-01 11:46 -28.94357 -51.43812 41151 ft 549 kts 53°
2026-05-01 11:47 -28.90457 -51.36302 41150 ft 550 kts 52°
2026-05-01 11:47 -28.86550 -51.28795 41149 ft 550 kts 52°
2026-05-01 11:48 -28.82641 -51.21291 41159 ft 551 kts 52°
2026-05-01 11:48 -28.78723 -51.13784 41169 ft 551 kts 52°
2026-05-01 11:49 -28.74821 -51.06321 41174 ft 551 kts 52°
2026-05-01 11:49 -28.70888 -50.98813 41172 ft 551 kts 52°
2026-05-01 11:50 -28.66951 -50.91311 41176 ft 551 kts 52°
2026-05-01 11:50 -28.63009 -50.83814 41178 ft 551 kts 52°
2026-05-01 11:51 -28.59067 -50.76328 41186 ft 551 kts 52°
2026-05-01 11:51 -28.55146 -50.68897 41207 ft 551 kts 52°
2026-05-01 11:52 -28.51190 -50.61415 41184 ft 552 kts 52°
2026-05-01 11:52 -28.47225 -50.53928 41203 ft 552 kts 52°
2026-05-01 11:53 -28.43928 -50.47710 41188 ft 552 kts 52°
2026-05-01 11:53 -28.39955 -50.40233 41199 ft 552 kts 52°
2026-05-01 11:54 -28.35975 -50.32763 41197 ft 553 kts 52°
2026-05-01 11:54 -28.32010 -50.25334 41209 ft 553 kts 52°
2026-05-01 11:55 -28.28037 -50.17887 41201 ft 553 kts 52°
2026-05-01 11:55 -28.24035 -50.10401 41210 ft 553 kts 52°
2026-05-01 11:56 -28.20041 -50.02948 41211 ft 554 kts 52°
2026-05-01 11:56 -28.16031 -49.95476 41205 ft 553 kts 52°
2026-05-01 11:57 -28.12028 -49.88037 41214 ft 553 kts 52°
2026-05-01 11:57 -28.08022 -49.80603 41226 ft 553 kts 52°
2026-05-01 11:58 -28.04012 -49.73176 41213 ft 552 kts 52°
2026-05-01 11:59 -27.98028 -49.62111 41221 ft 551 kts 52°
2026-05-01 11:59 -27.94013 -49.54708 41217 ft 552 kts 52°
2026-05-01 12:00 -27.87992 -49.43627 41213 ft 551 kts 52°
2026-05-01 12:01 -27.81962 -49.32558 41231 ft 551 kts 53°
2026-05-01 12:01 -27.77942 -49.25197 41211 ft 550 kts 52°
2026-05-01 12:02 -27.73921 -49.17844 41209 ft 550 kts 52°
2026-05-01 12:02 -27.69897 -49.10494 41209 ft 550 kts 52°
2026-05-01 12:03 -27.65895 -49.03198 41207 ft 550 kts 52°
2026-05-01 12:03 -27.61865 -48.95864 41202 ft 550 kts 52°
2026-05-01 12:04 -27.57864 -48.88502 41175 ft 551 kts 53°
2026-05-01 12:04 -27.53893 -48.81128 41199 ft 550 kts 53°
2026-05-01 12:05 -27.49922 -48.73770 41168 ft 549 kts 53°
2026-05-01 12:05 -27.43948 -48.62758 41168 ft 549 kts 53°
2026-05-01 12:06 -27.39953 -48.55413 41186 ft 550 kts 53°
2026-05-01 12:06 -27.35986 -48.48129 41183 ft 550 kts 52°
2026-05-01 12:07 -27.31977 -48.40782 41179 ft 550 kts 53°
2026-05-01 12:07 -27.27957 -48.33428 41179 ft 551 kts 53°
2026-05-01 12:08 -27.23940 -48.26092 41179 ft 551 kts 52°
2026-05-01 12:08 -27.19933 -48.18784 41174 ft 551 kts 53°
2026-05-01 12:09 -27.15905 -48.11452 41173 ft 551 kts 53°
2026-05-01 12:09 -27.11875 -48.04127 41173 ft 551 kts 52°
2026-05-01 12:10 -27.05829 -47.93162 41163 ft 552 kts 53°
2026-05-01 12:11 -26.99764 -47.82191 41165 ft 552 kts 52°
2026-05-01 12:11 -26.95713 -47.74878 41159 ft 552 kts 53°
2026-05-01 12:12 -26.91660 -47.67572 41156 ft 552 kts 53°
2026-05-01 12:12 -26.87605 -47.60275 41168 ft 550 kts 53°
2026-05-01 12:13 -26.83581 -47.53046 41168 ft 549 kts 53°
2026-05-01 12:13 -26.79537 -47.45793 41168 ft 549 kts 53°
2026-05-01 12:14 -26.75486 -47.38540 41166 ft 549 kts 53°
2026-05-01 12:14 -26.71436 -47.31301 41175 ft 549 kts 53°
2026-05-01 12:15 -26.67376 -47.24055 41173 ft 548 kts 53°
2026-05-01 12:15 -26.63349 -47.16878 41159 ft 548 kts 53°
2026-05-01 12:16 -26.59299 -47.09671 41174 ft 548 kts 53°
2026-05-01 12:16 -26.55236 -47.02455 41173 ft 547 kts 53°
2026-05-01 12:17 -26.51175 -46.95255 41173 ft 547 kts 53°
2026-05-01 12:17 -26.47114 -46.88065 41176 ft 547 kts 53°
2026-05-01 12:18 -26.43048 -46.80877 41176 ft 547 kts 53°
2026-05-01 12:18 -26.38811 -46.73911 41178 ft 540 kts 43°
2026-05-01 12:19 -26.33776 -46.67713 41176 ft 537 kts 40°
2026-05-01 12:19 -26.28615 -46.61689 41174 ft 536 kts 40°
2026-05-01 12:20 -26.23445 -46.55703 41170 ft 535 kts 40°
2026-05-01 12:20 -26.18329 -46.49764 41180 ft 535 kts 40°
2026-05-01 12:21 -26.13188 -46.43784 41177 ft 535 kts 40°
2026-05-01 12:21 -26.08039 -46.37797 41177 ft 535 kts 40°
2026-05-01 12:22 -26.02893 -46.31824 41179 ft 535 kts 40°
2026-05-01 12:22 -25.97741 -46.25854 41178 ft 535 kts 40°
2026-05-01 12:23 -25.92588 -46.19889 41181 ft 534 kts 40°
2026-05-01 12:23 -25.87433 -46.13930 41180 ft 535 kts 40°
2026-05-01 12:24 -25.82280 -46.07984 41182 ft 535 kts 40°
2026-05-01 12:24 -25.77150 -46.02069 41188 ft 535 kts 40°
2026-05-01 12:25 -25.69398 -45.93149 41181 ft 536 kts 40°
2026-05-01 12:26 -25.64220 -45.87203 41179 ft 536 kts 40°
2026-05-01 12:26 -25.56447 -45.78286 41183 ft 536 kts 40°
2026-05-01 12:27 -25.48692 -45.69410 41184 ft 535 kts 40°
2026-05-01 12:28 -25.40917 -45.60530 41183 ft 535 kts 40°
2026-05-01 12:29 -25.33143 -45.51670 41187 ft 535 kts 40°
2026-05-01 12:29 -25.25371 -45.42828 41187 ft 535 kts 40°
2026-05-01 12:30 -25.17577 -45.33980 41185 ft 536 kts 41°
2026-05-01 12:31 -25.12381 -45.28090 41174 ft 536 kts 41°
2026-05-01 12:31 -25.07205 -45.22230 41183 ft 536 kts 41°
2026-05-01 12:32 -25.02008 -45.16355 41181 ft 535 kts 41°
2026-05-01 12:32 -24.94199 -45.07540 41183 ft 536 kts 41°
2026-05-01 12:33 -24.88985 -45.01664 41184 ft 536 kts 41°
2026-05-01 12:33 -24.83780 -44.95806 41185 ft 535 kts 41°
2026-05-01 12:34 -24.78565 -44.89944 41183 ft 535 kts 41°
2026-05-01 12:34 -24.73360 -44.84101 41184 ft 534 kts 41°
2026-05-01 12:35 -24.68153 -44.78262 41182 ft 534 kts 41°
2026-05-01 12:35 -24.62977 -44.72467 41179 ft 534 kts 41°
2026-05-01 12:36 -24.57770 -44.66643 41181 ft 533 kts 41°
2026-05-01 12:36 -24.52562 -44.60827 41182 ft 533 kts 41°
2026-05-01 12:37 -24.46853 -44.55881 41187 ft 519 kts 22°
2026-05-01 12:37 -24.40440 -44.52249 40822 ft 515 kts 21°
2026-05-01 12:38 -24.37225 -44.50462 40045 ft 517 kts 21°
2026-05-01 12:38 -24.34009 -44.48673 39251 ft 521 kts 21°
2026-05-01 12:38 -24.30747 -44.46855 38369 ft 524 kts 21°
2026-05-01 12:38 -24.27490 -44.45037 37550 ft 525 kts 21°
2026-05-01 12:39 -24.24353 -44.43285 36852 ft 524 kts 21°
2026-05-01 12:39 -24.21030 -44.41430 36159 ft 523 kts 21°
2026-05-01 12:39 -24.17849 -44.39655 35465 ft 523 kts 21°
2026-05-01 12:39 -24.14546 -44.37814 34693 ft 523 kts 22°
2026-05-01 12:40 -24.11292 -44.36002 33838 ft 525 kts 22°
2026-05-01 12:40 -24.08046 -44.34195 32963 ft 526 kts 22°
2026-05-01 12:40 -24.04776 -44.32375 32098 ft 526 kts 22°
2026-05-01 12:40 -24.01507 -44.30557 31214 ft 527 kts 23°
2026-05-01 12:41 -23.98232 -44.28737 30291 ft 528 kts 23°
2026-05-01 12:41 -23.94963 -44.26905 29239 ft 530 kts 25°
2026-05-01 12:41 -23.91872 -44.24691 28450 ft 531 kts 36°
2026-05-01 12:41 -23.90102 -44.22871 27998 ft 530 kts 46°
2026-05-01 12:42 -23.87961 -44.19617 27556 ft 525 kts 59°
2026-05-01 12:42 -23.86299 -44.16085 27071 ft 523 kts 63°
2026-05-01 12:42 -23.84724 -44.12508 26571 ft 520 kts 63°
2026-05-01 12:42 -23.83051 -44.09027 26089 ft 514 kts 56°
2026-05-01 12:43 -23.80808 -44.06044 25604 ft 504 kts 40°
2026-05-01 12:43 -23.78001 -44.03840 25151 ft 494 kts 25°
2026-05-01 12:43 -23.74833 -44.02546 24690 ft 483 kts
2026-05-01 12:43 -23.71527 -44.02222 24243 ft 473 kts 354°
2026-05-01 12:44 -23.68270 -44.02571 23795 ft 469 kts 352°
2026-05-01 12:44 -23.65002 -44.02618 23303 ft 469 kts 359°
2026-05-01 12:44 -23.58525 -44.02254 22413 ft 463 kts
2026-05-01 12:45 -23.52172 -44.01857 21627 ft 457 kts
2026-05-01 12:45 -23.48998 -44.01653 21297 ft 455 kts
2026-05-01 12:45 -23.45841 -44.01454 20923 ft 454 kts
2026-05-01 12:46 -23.42700 -44.01256 20455 ft 450 kts
2026-05-01 12:46 -23.39578 -44.01057 20025 ft 448 kts
2026-05-01 12:46 -23.36471 -44.00860 19621 ft 445 kts
2026-05-01 12:46 -23.33427 -44.00668 19220 ft 443 kts
2026-05-01 12:47 -23.30316 -44.00472 18818 ft 440 kts
2026-05-01 12:47 -23.27291 -44.00281 18413 ft 438 kts
2026-05-01 12:47 -23.24259 -44.00089 18088 ft 425 kts
2026-05-01 12:47 -23.21387 -43.99907 17749 ft 413 kts
2026-05-01 12:48 -23.18540 -43.99728 17256 ft 405 kts
2026-05-01 12:48 -23.15751 -43.99553 16870 ft 396 kts
2026-05-01 12:48 -23.13014 -43.99382 16520 ft 393 kts
2026-05-01 12:48 -23.10281 -43.99212 16156 ft 392 kts
2026-05-01 12:49 -23.07568 -43.99043 15801 ft 390 kts
2026-05-01 12:49 -23.04855 -43.98873 15440 ft 388 kts
2026-05-01 12:49 -23.02182 -43.98705 15171 ft 380 kts
2026-05-01 12:49 -22.99587 -43.98541 14868 ft 369 kts
2026-05-01 12:50 -22.97044 -43.98312 14425 ft 364 kts
2026-05-01 12:50 -22.94647 -43.97541 14067 ft 358 kts 25°
2026-05-01 12:50 -22.92590 -43.96056 13713 ft 354 kts 42°
2026-05-01 12:50 -22.91056 -43.94024 13379 ft 353 kts 59°
2026-05-01 12:51 -22.89928 -43.91692 13066 ft 349 kts 64°
2026-05-01 12:51 -22.88900 -43.89343 12869 ft 336 kts 64°
2026-05-01 12:51 -22.87009 -43.85040 12369 ft 303 kts 64°
2026-05-01 12:52 -22.86099 -43.82987 12119 ft 301 kts 64°
2026-05-01 12:52 -22.84288 -43.78921 11578 ft 298 kts 64°
2026-05-01 12:52 -22.83397 -43.76919 11314 ft 295 kts 64°
2026-05-01 12:53 -22.81612 -43.72920 10769 ft 292 kts 64°
2026-05-01 12:53 -22.80897 -43.70862 10472 ft 291 kts 73°
2026-05-01 12:53 -22.80379 -43.68748 10178 ft 290 kts 75°
2026-05-01 12:54 -22.79900 -43.66671 9859 ft 285 kts 75°
2026-05-01 12:54 -22.78949 -43.62563 9217 ft 275 kts 75°
2026-05-01 12:54 -22.78490 -43.60572 8954 ft 269 kts 75°
2026-05-01 12:55 -22.77579 -43.56681 8462 ft 267 kts 75°
2026-05-01 12:55 -22.76938 -43.54810 8256 ft 260 kts 60°
2026-05-01 12:55 -22.75776 -43.53362 8035 ft 253 kts 37°
2026-05-01 12:56 -22.74207 -43.52573 7797 ft 248 kts 13°
2026-05-01 12:56 -22.72493 -43.52524 7556 ft 248 kts 351°
2026-05-01 12:56 -22.70924 -43.53200 7304 ft 244 kts 327°
2026-05-01 12:56 -22.69689 -43.54475 7101 ft 245 kts 309°
2026-05-01 12:57 -22.68682 -43.55970 6857 ft 245 kts 306°
2026-05-01 12:57 -22.66493 -43.58745 6492 ft 241 kts 328°
2026-05-01 12:57 -22.65012 -43.59384 6413 ft 224 kts 354°
2026-05-01 12:58 -22.63495 -43.59226 6412 ft 218 kts 22°
2026-05-01 12:58 -22.62282 -43.58301 6399 ft 216 kts 55°
2026-05-01 12:58 -22.61724 -43.56858 6396 ft 215 kts 82°
2026-05-01 12:59 -22.62817 -43.53946 6408 ft 212 kts 123°
2026-05-01 12:59 -22.63604 -43.52575 6409 ft 213 kts 119°
2026-05-01 12:59 -22.65382 -43.50016 6251 ft 214 kts 127°
2026-05-01 13:00 -22.67221 -43.47516 5975 ft 212 kts 127°
2026-05-01 13:00 -22.68119 -43.46239 5713 ft 212 kts 124°
2026-05-01 13:01 -22.69844 -43.43619 5086 ft 214 kts 125°
2026-05-01 13:01 -22.70699 -43.42348 4936 ft 202 kts 124°
2026-05-01 13:01 -22.72257 -43.39982 4567 ft 188 kts 123°
2026-05-01 13:02 -22.73017 -43.38826 4298 ft 187 kts 123°
2026-05-01 13:07 -22.82528 -43.24129 27 ft 38 kts 304°
2026-05-01 13:07 -22.82412 -43.24336 30 ft 31 kts 306°
2026-05-01 13:07 -22.82281 -43.24528 31 ft 32 kts 306°
2026-05-01 13:08 -22.82165 -43.24703 31 ft 25 kts 310°
2026-05-01 13:08 -22.82043 -43.24678 27 ft 19 kts 35°
2026-05-01 13:08 -22.81925 -43.24607 28 ft 20 kts 17°
2026-05-01 13:08 -22.81788 -43.24587 28 ft 21 kts 351°
2026-05-01 13:09 -22.81652 -43.24622 28 ft 13 kts
2026-05-01 13:09 -22.81630 -43.24622 28 ft 0 kts 357°